This is the latest recevied weather packets stored in our database for station/object NB9X. If no packets are shown the sender has not sent any weather packets the latest 10 day(s).
| Time | Temp. | Humidity | Pressure | Rain* | Wind** | Luminosity | Snow |
|---|---|---|---|---|---|---|---|
| 1778257984 | 30° C | 100% | 1014.5 hPa | 0 mm | - | - | - |
| 1778257684 | 29.44° C | 100% | 1014.5 hPa | 0 mm | - | - | - |
| 1778257384 | 29.44° C | 100% | 1014.6 hPa | 0 mm | - | - | - |
| 1778257084 | 28.89° C | 100% | 1014.7 hPa | 0 mm | - | - | - |
| 1778256784 | 30.56° C | 100% | 1014.6 hPa | 0 mm | - | - | - |
| 1778256484 | 30.56° C | 100% | 1014.8 hPa | 0 mm | - | - | - |
| 1778256184 | 29.44° C | 100% | 1015 hPa | 0 mm | - | - | - |
| 1778255884 | 30° C | 100% | 1015 hPa | 0 mm | - | - | - |
| 1778255584 | 29.44° C | 100% | 1015 hPa | 0 mm | - | - | - |
| 1778255284 | 28.89° C | 100% | 1015 hPa | 0 mm | - | - | - |
| 1778254984 | 28.33° C | 100% | 1015.1 hPa | 0 mm | - | - | - |
| 1778254724 | 28.89° C | 100% | 1015 hPa | 0 mm | - | - | - |
| 1778254684 | 28.89° C | 100% | 1015 hPa | 0 mm | - | - | - |
| 1778254616 | 28.89° C | 100% | 1015.1 hPa | 0 mm | - | - | - |
| 1778254384 | 28.89° C | 100% | 1015.1 hPa | 0 mm | - | - | - |
| 1778254336 | 27.78° C | 100% | 1015.1 hPa | 0 mm | - | - | - |
| 1778254084 | 29.44° C | 100% | 1015.1 hPa | 0 mm | - | - | - |
| 1778253784 | 28.33° C | 100% | 1015.1 hPa | 0 mm | - | - | - |
| 1778253484 | 27.78° C | 100% | 1015.1 hPa | 0 mm | - | - | - |
| 1778253453 | 28.89° C | 100% | 1015.3 hPa | 0 mm | - | - | - |
| 1778253184 | 27.78° C | 100% | 1015.1 hPa | 0 mm | - | - | - |
| 1778252884 | 27.78° C | 100% | 1015.2 hPa | 0 mm | - | - | - |
| 1778252584 | 28.89° C | 100% | 1015.3 hPa | 0 mm | - | - | - |
| 1778252424 | 28.33° C | 100% | 1015.2 hPa | 0 mm | - | - | - |
| 1778252284 | 28.33° C | 100% | 1015.2 hPa | 0 mm | - | - | - |
* Rain latest hour (hover to see other rain measurements)
** Current wind speed in m/s (hover to see current wind gust speed)